Location: Juzet
(42.9779°N, 0.7597°E)
Time: 08:22:22
(UTC+00:00)

COSMOS 2406 - Pass Details

Date: 14 July 2020
Orbit: 844 x 863 km, 71.0° (Epoch: 04 August)

Event Time Altitude Azimuth Distance (km) Brightness Sun altitude
Exits shadow 02:31:40 21° 250° (WSW) 1,843 4.5 -16.9°
Maximum altitude 02:34:52 37° 303° (WNW) 1,324 4.2 -16.5°
Drops below altitude 10° 02:40:11 10° 10° (N) 2,509 6.6 -16.0°
Sets 02:42:51 0° 19° (NNE) 3,447 7.8 -15.7°
